Tracking 19146 objects as of 23-Apr-2018
HD Live streaming from Space Station
objects crossing your sky now

FLOCK 2K 23

Track FLOCK 2K 23 now!
10-day predictions
FLOCK 2K 23 is classified as:


NORAD ID: 42859
Int'l Code: 2017-042AL
Perigee: 457.4 km
Apogee: 470.0 km
Inclination: 97.0 °
Period: 93.7 minutes
Semi major axis: 6834 km
RCS: Unknown
Launch date: July 14, 2017
Source: United States (US)
Launch site: TYURATAM MISSILE AND SPACE COMPLEX (TTMTR)
aabbcc
Your satellite tracking list
Your tracking list is empty




NASA's NSSDC Master Catalog

Two Line Element Set (TLE):
1 42859U 17042AL  18112.68680147  .00005240  00000-0  14924-3 0  9999
2 42859  96.9849  12.0711 0009182 324.1276  35.9351 15.36467729 43117
Source of the keplerian elements: AFSPC